Weather History for Monroe, MI

Change the Weather History Date:

Tuesday, March 5, 2013

  Actual Average Record
Temperature  
Mean Temperature 30 °F -  
Max Temperature 35 °F 44 °F 73 °F (1983)
Min Temperature 24 °F 26 °F 7 °F (1978)
Degree Days  
Heating Degree Days 36    
Moisture  
Dew Point 25 °F    
Average Humidity 82    
Maximum Humidity 93    
Minimum Humidity 70    
Precipitation  
Precipitation 0.00 in - - ()
Sea Level Pressure  
Sea Level Pressure 29.93 in    
Wind  
Wind Speed 9 mph (ENE)    
Max Wind Speed 20 mph    
Max Gust Speed 28 mph    
Visibility 10 miles    
Events      
Averages and records for this station are not official NWS values.
T = Trace of Precipitation, MM = Missing Value Source: NWS Daily Summary

Daily Weather History Graph

Daily Weather History Graph

Search for Another Location

Airport:

Trip Planner

Search our weather history database for the weather conditions in past years. The results will help you decide how hot, cold, wet, or windy it might be!

Date:

Astronomy

Mar. 05, 2013 Rise Set
Actual Time 7:01 AM EST 6:29 PM EST
Civil Twilight 6:34 AM EST 6:56 PM EST
Nautical Twilight 6:01 AM EST 7:29 PM EST
Astronomical Twilight 5:29 AM EST 8:01 PM EST
Moon 2:17 AM EST (3/5) 12:02 PM EST (3/5)
Length of Visible Light 12h 22m
Length of Day
11h 27m
Last Quarter, 41% of the Moon is Illuminated
Mar 5
Last Quarter
Mar 11
New
Mar 19
First Quarter
Mar 27
Full
Apr 3
Last Quarter

Hourly Weather History & Observations

Time (EST) Temp. Windchill Dew Point Humidity Pressure Visibility Wind Dir Wind Speed Gust Speed Precip Events Conditions
12:13 AM 26.6 °F - 23.0 °F 86% 30.10 in 10.0 mi Calm Calm - N/A   Clear
12:33 AM 26.6 °F 22.6 °F 23.0 °F 86% 30.10 in 10.0 mi NE 3.5 mph - N/A   Clear
12:54 AM 28.4 °F 23.3 °F 24.8 °F 86% 30.10 in 10.0 mi NE 4.6 mph - N/A   Clear
1:34 AM 26.6 °F 21.2 °F 23.0 °F 86% 30.10 in 10.0 mi NE 4.6 mph - N/A   Clear
1:54 AM 26.6 °F 19.1 °F 23.0 °F 86% 30.09 in 10.0 mi NE 6.9 mph - N/A   Clear
2:14 AM 26.6 °F 20.0 °F 23.0 °F 86% 30.09 in 10.0 mi ENE 5.8 mph - N/A   Clear
2:34 AM 24.8 °F 16.9 °F 23.0 °F 93% 30.08 in 10.0 mi NE 6.9 mph - N/A   Clear
2:54 AM 24.8 °F 16.1 °F 21.2 °F 86% 30.07 in 10.0 mi ENE 8.1 mph - N/A   Clear
3:14 AM 24.8 °F 16.9 °F 21.2 °F 86% 30.07 in 10.0 mi ENE 6.9 mph - N/A   Clear
4:15 AM 24.8 °F 16.9 °F 21.2 °F 86% 30.06 in 10.0 mi ENE 6.9 mph - N/A   Clear
4:35 AM 24.8 °F 16.9 °F 21.2 °F 86% 30.06 in 10.0 mi ENE 6.9 mph - N/A   Clear
4:55 AM 24.8 °F 16.1 °F 21.2 °F 86% 30.05 in 10.0 mi ENE 8.1 mph - N/A   Clear
5:15 AM 24.8 °F 15.3 °F 21.2 °F 86% 30.05 in 10.0 mi ENE 9.2 mph - N/A   Clear
5:52 AM 24.8 °F 16.9 °F 21.2 °F 86% 30.05 in 10.0 mi East 6.9 mph - N/A   Clear
6:12 AM 24.8 °F 16.1 °F 21.2 °F 86% 30.05 in 10.0 mi ENE 8.1 mph - N/A   Mostly Cloudy
6:32 AM 24.8 °F 16.1 °F 21.2 °F 86% 30.04 in 10.0 mi ENE 8.1 mph - N/A   Scattered Clouds
6:53 AM 24.8 °F 17.9 °F 21.2 °F 86% 30.04 in 10.0 mi East 5.8 mph - N/A   Clear
7:13 AM 24.8 °F 20.5 °F 21.2 °F 86% 30.04 in 10.0 mi East 3.5 mph - N/A   Scattered Clouds
7:53 AM 24.8 °F 14.6 °F 23.0 °F 93% 30.03 in 10.0 mi East 10.4 mph - N/A   Overcast
8:13 AM 26.6 °F 14.7 °F 23.0 °F 86% 30.03 in 10.0 mi East 15.0 mph 18.4 mph N/A   Overcast
8:33 AM 26.6 °F 16.8 °F 24.8 °F 93% 30.04 in 10.0 mi East 10.4 mph 17.3 mph N/A   Overcast
8:53 AM 26.6 °F 17.5 °F 24.8 °F 93% 30.04 in 10.0 mi East 9.2 mph - N/A   Overcast
9:13 AM 26.6 °F 17.5 °F 24.8 °F 93% 30.04 in 10.0 mi East 9.2 mph - N/A   Overcast
9:34 AM 28.4 °F 19.7 °F 24.8 °F 86% 30.03 in 10.0 mi ENE 9.2 mph - N/A   Overcast
9:54 AM 28.4 °F 19.1 °F 24.8 °F 86% 30.03 in 10.0 mi ENE 10.4 mph 16.1 mph N/A   Overcast
10:14 AM 28.4 °F 19.1 °F 24.8 °F 86% 30.02 in 10.0 mi ESE 10.4 mph 17.3 mph N/A   Overcast
10:34 AM 28.4 °F 18.0 °F 24.8 °F 86% 30.02 in 10.0 mi East 12.7 mph 18.4 mph N/A   Overcast
10:54 AM 28.4 °F 19.1 °F 24.8 °F 86% 30.00 in 10.0 mi East 10.4 mph - N/A   Overcast
11:14 AM 28.4 °F 18.0 °F 24.8 °F 86% 30.00 in 10.0 mi East 12.7 mph 20.7 mph N/A   Overcast
11:34 AM 28.4 °F 17.0 °F 24.8 °F 86% 30.00 in 10.0 mi East 15.0 mph 18.4 mph N/A   Overcast
11:54 AM 28.4 °F 17.0 °F 24.8 °F 86% 29.98 in 10.0 mi East 15.0 mph 23.0 mph N/A   Overcast
12:14 PM 28.4 °F 18.5 °F 24.8 °F 86% 29.97 in 10.0 mi East 11.5 mph 21.9 mph N/A   Overcast
12:34 PM 30.2 °F 18.5 °F 24.8 °F 80% 29.96 in 10.0 mi ENE 17.3 mph 23.0 mph N/A   Overcast
12:54 PM 30.2 °F 20.2 °F 24.8 °F 80% 29.95 in 10.0 mi East 12.7 mph 21.9 mph N/A   Overcast
1:15 PM 30.2 °F 20.8 °F 26.6 °F 86% 29.94 in 10.0 mi East 11.5 mph 18.4 mph N/A   Overcast
1:35 PM 30.2 °F 19.8 °F 24.8 °F 80% 29.92 in 10.0 mi ENE 13.8 mph 17.3 mph N/A   Overcast
1:55 PM 33.8 °F 24.8 °F 26.6 °F 75% 29.90 in 10.0 mi ENE 12.7 mph 17.3 mph N/A   Overcast
2:15 PM 33.8 °F 24.3 °F 26.6 °F 75% 29.89 in 10.0 mi East 13.8 mph 18.4 mph N/A   Mostly Cloudy
2:35 PM 33.8 °F 24.3 °F 26.6 °F 75% 29.88 in 10.0 mi East 13.8 mph 19.6 mph N/A   Scattered Clouds
2:55 PM 33.8 °F 25.8 °F 26.6 °F 75% 29.87 in 10.0 mi East 10.4 mph 17.3 mph N/A   Mostly Cloudy
3:15 PM 35.6 °F 26.6 °F 26.6 °F 70% 29.86 in 10.0 mi ENE 13.8 mph 19.6 mph N/A   Scattered Clouds
3:35 PM 33.8 °F 25.3 °F 26.6 °F 75% 29.85 in 10.0 mi ENE 11.5 mph 20.7 mph N/A   Scattered Clouds
3:55 PM 33.8 °F 25.8 °F 26.6 °F 75% 29.84 in 10.0 mi East 10.4 mph 19.6 mph N/A   Scattered Clouds
4:16 PM 33.8 °F 23.5 °F 26.6 °F 75% 29.83 in 10.0 mi ENE 16.1 mph 23.0 mph N/A   Scattered Clouds
4:36 PM 33.8 °F 25.8 °F 26.6 °F 75% 29.83 in 10.0 mi East 10.4 mph 20.7 mph N/A   Scattered Clouds
4:51 PM 33.8 °F 23.2 °F 26.6 °F 75% 29.81 in 10.0 mi ENE 17.3 mph 21.9 mph N/A   Scattered Clouds
5:11 PM 33.8 °F 24.8 °F 26.6 °F 75% 29.81 in 10.0 mi ENE 12.7 mph 19.6 mph N/A   Mostly Cloudy
5:31 PM 33.8 °F 25.3 °F 26.6 °F 75% 29.81 in 10.0 mi East 11.5 mph 21.9 mph N/A   Overcast
5:51 PM 32.0 °F 21.2 °F 26.6 °F 80% 29.80 in 10.0 mi ENE 16.1 mph 21.9 mph N/A   Overcast
6:11 PM 32.0 °F 21.6 °F 26.6 °F 80% 29.80 in 10.0 mi ENE 15.0 mph 24.2 mph N/A   Overcast
6:31 PM 32.0 °F 20.8 °F 24.8 °F 75% 29.79 in 10.0 mi ENE 17.3 mph 26.5 mph N/A   Overcast
6:51 PM 32.0 °F 20.1 °F 24.8 °F 75% 29.80 in 10.0 mi ENE 19.6 mph 24.2 mph N/A   Overcast
7:11 PM 32.0 °F 20.8 °F 24.8 °F 75% 29.80 in 10.0 mi ENE 17.3 mph 24.2 mph N/A   Overcast
7:31 PM 32.0 °F 20.5 °F 24.8 °F 75% 29.79 in 10.0 mi ENE 18.4 mph 25.3 mph N/A   Overcast
7:51 PM 32.0 °F 21.2 °F 24.8 °F 75% 29.78 in 10.0 mi ENE 16.1 mph 26.5 mph N/A   Overcast
8:12 PM 32.0 °F 20.5 °F 24.8 °F 75% 29.79 in 10.0 mi ENE 18.4 mph 25.3 mph N/A   Overcast
8:33 PM 32.0 °F 22.5 °F 24.8 °F 75% 29.78 in 10.0 mi NE 12.7 mph 27.6 mph N/A   Overcast
8:53 PM 32.0 °F 21.6 °F 24.8 °F 75% 29.78 in 10.0 mi NE 15.0 mph 24.2 mph N/A   Overcast
9:13 PM 33.8 °F 24.3 °F 26.6 °F 75% 29.78 in 10.0 mi NE 13.8 mph 25.3 mph N/A   Overcast
9:33 PM 33.8 °F 24.3 °F 26.6 °F 75% 29.78 in 10.0 mi NE 13.8 mph 23.0 mph N/A   Overcast
9:54 PM 32.0 °F 24.2 °F 26.6 °F 80% 29.78 in 10.0 mi NNE 9.2 mph 17.3 mph N/A   Overcast
10:14 PM 32.0 °F 23.0 °F 26.6 °F 80% 29.78 in 10.0 mi NNE 11.5 mph 19.6 mph N/A   Overcast
10:34 PM 32.0 °F 23.6 °F 26.6 °F 80% 29.78 in 10.0 mi NE 10.4 mph 16.1 mph N/A   Mostly Cloudy
10:54 PM 32.0 °F 23.0 °F 26.6 °F 80% 29.78 in 10.0 mi NE 11.5 mph 16.1 mph N/A   Mostly Cloudy
11:14 PM 32.0 °F 22.5 °F 26.6 °F 80% 29.78 in 10.0 mi NNE 12.7 mph 19.6 mph N/A   Scattered Clouds
11:34 PM 30.2 °F 21.3 °F 26.6 °F 86% 29.78 in 10.0 mi NNE 10.4 mph 16.1 mph N/A   Scattered Clouds
11:54 PM 30.2 °F 21.3 °F 26.6 °F 86% 29.78 in 10.0 mi NNE 10.4 mph 19.6 mph N/A   Clear